Location: Silent Lake
(44.9206°N, 78.0708°W)
Time: 13:45:56
(UTC-04:00)

SPOT 1/Viking Rocket - Pass Details

Date: 19 April 2018
Orbit: 777 x 795 km, 98.6° (Epoch: 27 May)

Event Time Altitude Azimuth Distance (km) Brightness Sun altitude
Exits shadow 22:31:21 57° 137° (SE) 931 3.5 -23.0°
Maximum altitude 22:32:20 75° 74° (ENE) 829 3.5 -23.2°
Drops below altitude 10° 22:37:35 10° 350° (N) 2,374 6.8 -23.8°
Sets 22:39:55 0° 348° (NNW) 3,306 7.8 -24.1°
